Location: ?????????
(54.7630°N, 39.4991°E)
Time: 05:56:08
(UTC+00:00)

Cosmos 1634 Rocket - Pass Details

Date: 14 April 2026
Orbit: 959 x 992 km, 82.9° (Epoch: 10 May)

Event Time Altitude Azimuth Distance (km) Brightness Sun altitude
Exits shadow 23:24:33 26° 169° (S) 1,794 5.0 -20.6°
Maximum altitude 23:28:06 66° 95° (E) 1,052 4.2 -20.3°
Drops below altitude 10° 23:34:13 10° 15° (NNE) 2,707 7.4 -19.8°
Sets 23:36:44 0° 13° (NNE) 3,656 8.2 -19.6°
